KD2RHT-13 Weather Reports


Display with metric or nautical units.
time (UTC)temp
F
wind
direction
speed
MPH
gust
MPH
rain 1hr
in
rain 24hr
in
rain mn
in
humidity
%
barometer
mb
20260505213929 64 341 5.0 8.0 0.00 0.01 0.01 72 1008.0
20260505213427 65 125 3.0 5.0 0.00 0.01 0.01 73 1008.0
20260505212923 65 198 2.0 2.0 0.00 0.01 0.01 74 1007.7
20260505212420 64 237 3.0 3.0 0.00 0.01 0.01 75 1007.7
20260505211916 64 246 2.0 2.0 0.00 0.01 0.01 75 1007.7
20260505211414 65 260 3.0 3.0 0.00 0.01 0.01 74 1007.3
20260505210910 65 232 3.0 3.0 0.00 0.01 0.01 73 1007.0
20260505210408 66 280 3.0 5.0 0.00 0.01 0.01 72 1006.7
20260505205904 67 304 4.0 6.0 0.00 0.01 0.01 70 1007.0
20260505205403 68 152 1.0 1.0 0.00 0.01 0.01 68 1007.0
20260505204859 69 230 1.0 2.0 0.00 0.01 0.01 68 1006.7
20260505204357 71 215 4.0 8.0 0.00 0.01 0.01 65 1006.7
20260505203854 73 202 4.0 5.0 0.00 0.01 0.01 63 1006.0
20260505203350 74 190 3.0 3.0 0.00 0.01 0.01 65 1006.0
20260505202847 73 161 0.0 0.0 0.00 0.01 0.01 67 1006.0
20260505202343 73 174 1.0 1.0 0.00 0.01 0.01 66 1006.0
20260505201840 73 221 1.0 2.0 0.00 0.01 0.01 65 1006.0
20260505201337 73 186 2.0 2.0 0.00 0.01 0.01 66 1006.3
20260505200836 73 177 1.0 1.0 0.00 0.01 0.01 67 1006.3
20260505200332 74 175 2.0 3.0 0.00 0.01 0.01 66 1006.3
20260505195827 75 192 2.0 3.0 0.00 0.01 0.01 64 1006.3
20260505195325 74 198 2.0 2.0 0.00 0.01 0.01 67 1006.3
20260505194822 74 147 2.0 3.0 0.00 0.01 0.01 67 1006.3
20260505194319 73 203 3.0 3.0 0.00 0.01 0.01 67 1006.3
20260505193814 73 161 0.0 0.0 0.00 0.01 0.01 69 1006.3
20260505193312 73 219 1.0 3.0 0.00 0.01 0.01 69 1006.7
20260505192810 73 213 3.0 5.0 0.00 0.01 0.01 68 1006.0
20260505192310 72 182 2.0 2.0 0.00 0.01 0.01 70 1006.7
20260505191806 72 222 5.0 7.0 0.00 0.01 0.01 69 1006.7
20260505191304 71 192 7.0 11.0 0.00 0.01 0.01 70 1006.3
20260505190800 71 153 4.0 5.0 0.00 0.01 0.01 71 1006.3
20260505190255 71 215 6.0 10.0 0.00 0.01 0.01 71 1006.3
20260505185752 70 183 1.0 2.0 0.00 0.01 0.01 75 1006.7
20260505185248 69 151 3.0 5.0 0.00 0.01 0.01 77 1006.7
20260505184744 68 206 3.0 3.0 0.00 0.01 0.01 79 1006.3
20260505184242 65 140 6.0 8.0 0.05 0.01 0.01 81 1006.7
20260505183738 66 206 3.0 5.0 0.05 0.01 0.01 82 1006.7
20260505183236 66 210 3.0 3.0 0.00 0.00 0.00 79 1007.0
20260505182732 67 221 3.0 5.0 0.00 0.00 0.00 79 1007.0
20260505182229 67 191 3.0 5.0 0.00 0.00 0.00 77 1007.0
20260505181725 67 196 3.0 3.0 0.00 0.00 0.00 79 1007.0
20260505181223 67 163 0.0 1.0 0.00 0.00 0.00 79 1007.0
20260505180719 67 253 3.0 5.0 0.00 0.00 0.00 77 1006.7
20260505180216 68 183 5.0 7.0 0.00 0.00 0.00 76 1006.7
20260505175712 69 170 1.0 2.0 0.00 0.00 0.00 72 1006.3
20260505175209 70 204 1.0 2.0 0.00 0.00 0.00 69 1006.0
20260505174705 70 214 4.0 8.0 0.00 0.00 0.00 69 1005.6
20260505174202 70 178 2.0 3.0 0.00 0.00 0.00 67 1005.6
20260505173658 71 244 7.0 8.0 0.00 0.00 0.00 65 1005.6
20260505173155 73 232 5.0 6.0 0.00 0.00 0.00 61 1006.0
20260505172653 73 171 3.0 5.0 0.00 0.00 0.00 60 1005.6
20260505172150 73 208 3.0 6.0 0.00 0.00 0.00 61 1005.6
20260505171649 73 205 2.0 5.0 0.00 0.00 0.00 59 1005.3
20260505171146 73 101 5.0 7.0 0.00 0.00 0.00 59 1005.3
20260505170644 73 157 3.0 5.0 0.00 0.00 0.00 59 1005.3
20260505170141 73 121 3.0 5.0 0.00 0.00 0.00 59 1005.6
20260505165640 73 173 0.0 1.0 0.00 0.00 0.00 60 1005.6
20260505165137 73 267 3.0 3.0 0.00 0.00 0.00 60 1005.6
20260505164632 73 176 5.0 7.0 0.00 0.00 0.00 59 1006.0
20260505164130 73 205 2.0 3.0 0.00 0.00 0.00 60 1005.3
20260505163628 74 195 3.0 5.0 0.00 0.00 0.00 59 1005.3
20260505163125 74 193 3.0 3.0 0.00 0.00 0.00 59 1005.3
20260505162623 74 113 3.0 3.0 0.00 0.00 0.00 59 1005.6
20260505162120 74 163 2.0 2.0 0.00 0.00 0.00 60 1005.3
20260505161617 74 198 3.0 5.0 0.00 0.00 0.00 60 1005.6
20260505161114 74 212 5.0 7.0 0.00 0.00 0.00 59 1005.3
20260505160612 74 160 1.0 2.0 0.00 0.00 0.00 60 1005.3
20260505160109 74 181 3.0 3.0 0.00 0.00 0.00 61 1005.3
20260505153049 73 218 6.0 7.0 0.00 0.00 0.00 60 1005.6
20260505152545 73 146 4.0 5.0 0.00 0.00 0.00 60 1005.6
20260505152041 73 114 4.0 7.0 0.00 0.00 0.00 60 1005.6
20260505151536 74 278 5.0 6.0 0.00 0.00 0.00 60 1005.6
20260505151034 74 141 5.0 6.0 0.00 0.00 0.00 59 1005.6
20260505150530 74 195 6.0 8.0 0.00 0.00 0.00 58 1005.6
20260505140455 73 215 9.0 13.0 0.00 0.00 0.00 60 1005.6
20260505124909 70 181 5.0 6.0 0.00 0.00 0.00 64 1005.6
20260505124406 70 224 3.0 3.0 0.00 0.00 0.00 64 1005.3
20260505123902 70 202 5.0 6.0 0.00 0.00 0.00 64 1005.6
20260505123359 70 176 3.0 3.0 0.00 0.00 0.00 64 1005.6
20260505122854 70 66 5.0 9.0 0.00 0.00 0.00 65 1005.3
20260505122352 69 114 4.0 6.0 0.00 0.00 0.00 65 1005.0
20260505121849 69 214 1.0 2.0 0.00 0.00 0.00 66 1005.3
20260505121346 69 195 4.0 6.0 0.00 0.00 0.00 66 1005.6
20260505120842 69 150 0.0 1.0 0.00 0.00 0.00 66 1005.3
20260505120338 68 153 6.0 8.0 0.00 0.00 0.00 66 1005.3
20260505115837 68 198 3.0 5.0 0.00 0.00 0.00 67 1005.3
20260505115334 67 219 3.0 5.0 0.00 0.00 0.00 67 1005.3
20260505114832 67 214 5.0 6.0 0.00 0.00 0.00 68 1005.3
20260505114328 67 184 7.0 9.0 0.00 0.00 0.00 68 1005.3
20260505113825 66 188 2.0 3.0 0.00 0.00 0.00 69 1005.3
20260505113321 66 74 3.0 7.0 0.00 0.00 0.00 69 1005.3
20260505112817 66 145 3.0 3.0 0.00 0.00 0.00 69 1005.0
20260505112315 66 187 3.0 5.0 0.00 0.00 0.00 70 1005.3
20260505111810 65 201 1.0 1.0 0.00 0.00 0.00 71 1005.0
20260505111306 65 215 4.0 6.0 0.00 0.00 0.00 71 1005.3
20260505110802 65 201 4.0 6.0 0.00 0.00 0.00 70 1005.0
20260505110300 65 198 4.0 6.0 0.00 0.00 0.00 71 1005.0
20260505101734 61 116 0.0 0.0 0.00 0.00 0.00 81 1004.5
20260505101230 60 165 0.0 1.0 0.00 0.00 0.00 83 1004.5
20260505100727 60 144 0.0 0.0 0.00 0.00 0.00 83 1005.0
20260505100224 60 155 0.0 1.0 0.00 0.00 0.00 83 1004.5
20260505095723 60 194 0.0 0.0 0.00 0.00 0.00 84 1005.0
20260505095222 60 142 0.0 0.0 0.00 0.00 0.00 84 1005.0
20260505094717 60 143 1.0 1.0 0.00 0.00 0.00 83 1004.5
20260505094214 60 168 0.0 1.0 0.00 0.00 0.00 84 1004.5
20260505093710 60 170 0.0 1.0 0.00 0.00 0.00 85 1005.0
20260505093208 60 201 3.0 3.0 0.00 0.00 0.00 86 1005.0
20260505092704 60 108 1.0 2.0 0.00 0.00 0.00 88 1005.0
20260505092203 60 154 0.0 0.0 0.00 0.00 0.00 89 1005.0
20260505091700 60 161 0.0 0.0 0.00 0.00 0.00 88 1005.0
20260505091158 61 159 0.0 0.0 0.00 0.00 0.00 87 1005.0
20260505090655 61 154 0.0 0.0 0.00 0.00 0.00 87 1005.0
20260505090153 61 139 0.0 0.0 0.00 0.00 0.00 87 1005.0
20260505085650 61 172 1.0 2.0 0.00 0.00 0.00 86 1005.0
20260505085149 62 170 0.0 0.0 0.00 0.00 0.00 85 1005.0
20260505084646 62 167 0.0 1.0 0.00 0.00 0.00 85 1005.0
20260505084144 62 177 1.0 1.0 0.00 0.00 0.00 84 1005.3
20260505083641 63 199 1.0 2.0 0.00 0.00 0.00 82 1005.0
20260505083137 63 148 1.0 2.0 0.00 0.00 0.00 79 1005.0
20260505082634 63 197 3.0 3.0 0.00 0.00 0.00 77 1005.0
20260505082131 63 199 3.0 3.0 0.00 0.00 0.00 76 1005.3
20260505081626 64 222 4.0 5.0 0.00 0.00 0.00 75 1005.3
20260505081125 65 189 4.0 6.0 0.00 0.00 0.00 71 1005.3
20260505080621 65 217 2.0 5.0 0.00 0.00 0.00 69 1005.3
20260505080117 66 223 2.0 2.0 0.00 0.00 0.00 66 1005.3
20260505075613 66 169 3.0 3.0 0.00 0.00 0.00 66 1005.3
20260505075110 66 123 3.0 6.0 0.00 0.00 0.00 65 1005.3
20260505074607 66 266 5.0 8.0 0.00 0.00 0.00 66 1005.0
20260505074104 65 137 1.0 2.0 0.00 0.00 0.00 67 1005.3
20260505073602 65 191 2.0 2.0 0.00 0.00 0.00 69 1005.3
20260505073100 64 189 1.0 2.0 0.00 0.00 0.00 69 1005.3
20260505072555 64 171 0.0 1.0 0.00 0.00 0.00 70 1005.0
20260505072052 64 150 0.0 1.0 0.00 0.00 0.00 70 1005.3
20260505071547 64 210 4.0 6.0 0.00 0.00 0.00 70 1005.3
20260505071046 64 224 4.0 6.0 0.00 0.00 0.00 70 1005.3
20260505070543 64 173 3.0 3.0 0.00 0.00 0.00 71 1005.3
20260505070039 64 124 1.0 1.0 0.00 0.00 0.00 71 1005.3
20260505065535 64 101 1.0 2.0 0.00 0.00 0.00 71 1005.0
20260505065032 64 180 2.0 2.0 0.00 0.00 0.00 70 1005.0
20260505064528 64 137 3.0 5.0 0.00 0.00 0.00 70 1005.3
20260505064027 65 230 3.0 5.0 0.00 0.00 0.00 70 1005.0
20260505063524 64 143 5.0 9.0 0.00 0.00 0.00 68 1005.3
20260505063020 65 194 3.0 3.0 0.00 0.00 0.00 67 1005.3
20260505062516 65 168 1.0 2.0 0.00 0.00 0.00 65 1005.0
20260505062014 65 176 3.0 3.0 0.00 0.00 0.00 65 1005.3
20260505061511 65 184 2.0 3.0 0.00 0.00 0.00 64 1005.0
20260505061009 66 168 3.0 3.0 0.00 0.00 0.00 63 1005.3
20260505060506 66 184 5.0 7.0 0.00 0.00 0.00 62 1005.0
20260505060002 66 171 4.0 6.0 0.00 0.00 0.00 62 1005.3
20260505055458 66 233 1.0 2.0 0.00 0.00 0.00 61 1005.0
20260505054955 66 256 4.0 7.0 0.00 0.00 0.00 59 1005.0
20260505054452 66 224 5.0 6.0 0.00 0.00 0.00 58 1005.0
20260505053950 66 211 1.0 3.0 0.00 0.00 0.00 58 1005.0
20260505053447 65 102 1.0 2.0 0.00 0.00 0.00 58 1005.0
20260505052944 65 148 3.0 5.0 0.00 0.00 0.00 59 1005.0
20260505052441 65 147 1.0 2.0 0.00 0.00 0.00 60 1005.3
20260505051938 65 123 1.0 1.0 0.00 0.00 0.00 60 1005.3
20260505051435 64 140 0.0 0.0 0.00 0.00 0.00 60 1005.6
20260505050933 64 107 1.0 1.0 0.00 0.00 0.00 61 1005.3
20260505050431 65 144 0.0 0.0 0.00 0.00 0.00 61 1005.3
20260505041358 63 157 0.0 0.0 0.00 0.00 0.00 58 1005.3
20260505040855 63 122 0.0 1.0 0.00 0.00 0.00 58 1005.3
20260505040353 63 159 0.0 0.0 0.00 0.00 0.00 57 1005.3
20260505035850 63 145 1.0 2.0 0.00 0.00 0.00 56 1005.3
20260505035345 63 176 0.0 0.0 0.00 0.00 0.00 58 1005.3
20260505034843 63 162 0.0 1.0 0.00 0.00 0.00 57 1005.0
20260505034339 64 160 0.0 0.0 0.00 0.00 0.00 57 1005.0
20260505033837 64 160 0.0 0.0 0.00 0.00 0.00 56 1005.0
20260505033333 64 156 1.0 1.0 0.00 0.00 0.00 56 1005.3
20260505032832 64 185 0.0 0.0 0.00 0.00 0.00 56 1005.0
20260505032328 64 161 0.0 0.0 0.00 0.00 0.00 55 1005.3
20260505031825 64 177 0.0 1.0 0.00 0.00 0.00 55 1005.3
20260505031321 65 157 0.0 0.0 0.00 0.00 0.00 54 1005.0
20260505030819 65 164 1.0 1.0 0.00 0.00 0.00 54 1005.3
20260505030315 65 157 2.0 3.0 0.00 0.00 0.00 53 1005.0
20260505025810 65 137 2.0 2.0 0.00 0.00 0.00 53 1005.0
20260505025308 66 168 3.0 3.0 0.00 0.00 0.00 53 1005.0
20260505024806 65 106 3.0 5.0 0.00 0.00 0.00 53 1005.0
20260505024303 65 199 1.0 1.0 0.00 0.00 0.00 53 1005.3
20260505023801 65 175 5.0 7.0 0.00 0.00 0.00 53 1005.0
20260505023257 65 172 2.0 2.0 0.00 0.00 0.00 53 1005.0
20260505022755 64 90 2.0 3.0 0.00 0.00 0.00 53 1005.3
20260505022252 64 148 0.0 0.0 0.00 0.00 0.00 54 1005.3
20260505021749 63 123 3.0 5.0 0.00 0.00 0.00 54 1005.3
20260505021246 62 162 0.0 0.0 0.00 0.00 0.00 57 1005.3
20260505020741 61 155 0.0 0.0 0.00 0.00 0.00 59 1005.3
20260505020237 60 160 0.0 0.0 0.00 0.00 0.00 62 1005.3
20260505015734 60 150 0.0 0.0 0.00 0.00 0.00 62 1005.3
20260505015231 58 157 0.0 0.0 0.00 0.00 0.00 68 1005.0
20260505014728 58 154 0.0 0.0 0.00 0.00 0.00 68 1005.3
20260505014225 58 151 0.0 0.0 0.00 0.00 0.00 69 1005.0
20260505013722 58 157 0.0 0.0 0.00 0.00 0.00 67 1005.3
20260505013219 59 157 0.0 0.0 0.00 0.00 0.00 68 1005.3
20260505012717 59 160 0.0 0.0 0.00 0.00 0.00 67 1005.6
20260505012214 59 154 0.0 0.0 0.00 0.00 0.00 65 1005.3
20260505011710 59 155 0.0 0.0 0.00 0.00 0.00 65 1005.0
20260505011208 60 155 0.0 0.0 0.00 0.00 0.00 63 1005.3
20260505010702 60 154 0.0 0.0 0.00 0.00 0.00 62 1005.3
20260505010200 60 154 0.0 0.0 0.00 0.00 0.00 62 1005.3
20260505005655 61 154 0.0 0.0 0.00 0.00 0.00 61 1005.0
20260505005153 61 154 0.0 0.0 0.00 0.00 0.00 61 1005.3
20260505004650 62 154 0.0 0.0 0.00 0.00 0.00 60 1005.3
20260505004146 62 154 0.0 0.0 0.00 0.00 0.00 60 1005.0
20260505003644 62 154 0.0 0.0 0.00 0.00 0.00 59 1005.0
20260505003141 62 154 0.0 0.0 0.00 0.00 0.00 58 1005.3
20260505002637 63 154 0.0 0.0 0.00 0.00 0.00 57 1005.3
20260505002135 64 154 0.0 0.0 0.00 0.00 0.00 55 1005.0
20260505001632 64 154 0.0 0.0 0.00 0.00 0.00 54 1005.3
20260505001130 65 154 0.0 0.0 0.00 0.00 0.00 52 1005.0
20260505000627 66 154 0.0 0.0 0.00 0.00 0.00 51 1005.0
20260505000125 66 154 0.0 0.0 0.00 0.00 0.00 49 1005.0
20260504235620 67 155 0.0 0.0 0.00 0.00 0.00 49 1005.0
20260504235117 69 155 0.0 0.0 0.00 0.00 0.00 46 1005.0
20260504234615 70 157 0.0 0.0 0.00 0.00 0.00 45 1005.0
20260504234112 71 157 0.0 0.0 0.00 0.00 0.00 43 1005.0
20260504233607 71 155 0.0 0.0 0.00 0.00 0.00 42 1005.0
20260504233104 72 175 0.0 0.0 0.00 0.00 0.00 41 1005.0
20260504232601 72 168 1.0 2.0 0.00 0.00 0.00 40 1005.0
20260504232058 72 152 2.0 2.0 0.00 0.00 0.00 41 1005.0
20260504231555 73 176 0.0 1.0 0.00 0.00 0.00 42 1005.0
20260504231051 73 164 0.0 0.0 0.00 0.00 0.00 41 1005.0
20260504230547 73 130 0.0 1.0 0.00 0.00 0.00 39 1005.0
20260504230046 73 199 3.0 5.0 0.00 0.00 0.00 40 1005.3
20260504225543 73 188 2.0 2.0 0.00 0.00 0.00 41 1005.0
20260504225040 73 165 2.0 2.0 0.00 0.00 0.00 40 1005.0
20260504224536 73 168 0.0 1.0 0.00 0.00 0.00 41 1005.3
20260504224034 73 169 0.0 0.0 0.00 0.00 0.00 43 1005.0
20260504223531 73 199 2.0 3.0 0.00 0.00 0.00 41 1005.3
20260504223026 73 164 0.0 1.0 0.00 0.00 0.00 42 1005.3
20260504222523 73 191 4.0 5.0 0.00 0.00 0.00 40 1005.0
20260504222021 73 169 7.0 9.0 0.00 0.00 0.00 40 1005.3
20260504221518 73 167 2.0 2.0 0.00 0.00 0.00 44 1005.3
20260504221015 73 146 1.0 2.0 0.00 0.00 0.00 43 1005.3
20260504220511 73 169 1.0 2.0 0.00 0.00 0.00 44 1005.3
20260504220008 73 184 3.0 3.0 0.00 0.00 0.00 41 1005.6
20260504215505 73 167 3.0 5.0 0.00 0.00 0.00 41 1005.6
20260504215002 73 208 3.0 3.0 0.00 0.00 0.00 44 1005.3
20260504214458 73 186 4.0 6.0 0.00 0.00 0.00 42 1005.3